x

Neah Bay, - 6nm North Of Cape Flattery, Wa (traffic Separation Lighted Buoy) (46087) Wave Buoy

11:20 - Sat 27th Aug 2016 All times are PDT. -7 hours from GMT.

  • Sig Wave height 3.9ft
  • Swell Direction
  • Peak Period 7s
  • Average Period 6s
  • Wind
    9mph
  • Sea Temp 53°f
  • Luft Temp 55°f
  • Sea Pressure 1015.4mb
  • Neah Bay, - 6nm North Of Cape Flattery, Wa     (traffic Separation Lighted Buoy)
  • Neah Bay, - 6nm North Of Cape Flattery, Wa     (traffic Separation Lighted Buoy)

More Historic Weather Station data

Upgrade to MSW Pro to gain access to the past 30 days of data for over 8000 Wavebouys and Weather Stations around the globe.

Join Pro

Comparision Forecast

View Surf forecast
   
Sa 08/27 11:20 4ft 7s 6s 9
mph
1015.4mb 53f 55f
10:50 3.5ft 6s 5s 9
mph
1015.3mb 53f 55f
10:20 4ft 7s 5s 9 11 mph 1015.1mb 53f 55f
9:50 4.5ft 8s 5s 9 11 mph 1015.1mb 53f 56f
9:20 4.5ft 7s 6s 9 11 mph 1014.8mb 53f 55f
8:50 5ft 8s 6s 7 9 mph 1014.5mb 53f 55f
8:20 5.5ft 8s 6s 9 11 mph 1014.2mb 53f 55f
7:50 5.5ft 7s 6s 11 13 mph 1014mb 53f 56f
7:20 6ft 8s 7s 13 16 mph 1014mb 53f 56f
6:50 6ft 8s 7s 16 20 mph 1013.9mb 53f 57f
6:20 6ft 8s 7s 9 11 mph 1013.8mb 53f 56f
5:50 6ft 8s 7s 9 11 mph 1013.7mb 52f 56f
5:20 6.5ft 8s 7s 11
mph
1013.6mb 52f 55f
4:50 6ft 8s 6s 11 13 mph 1013.4mb 52f 55f
4:20 6ft 8s 6s 11 13 mph 1013.3mb 52f 55f
3:50 5.5ft 8s 6s 13 16 mph 1013.2mb 53f 55f
3:20 6.5ft 8s 7s 13 16 mph 1012.9mb 53f 56f
2:50 6.5ft 8s 7s 13 18 mph 1012.6mb 54f 56f
2:20 6.5ft 8s 7s 13 16 mph 1012.4mb 54f 56f
1:50 6ft 8s 7s 13 16 mph 1011.9mb 54f 56f
1:20 6ft 8s 7s 11 16 mph 1011.6mb 54f 55f
12:50 5.5ft 8s 6s 9 11 mph 1011.5mb 54f 55f
12:20 5ft 8s 6s 13 18 mph 1011.1mb 54f 55f
11:50 5ft 7s 6s 13 18 mph 1010.7mb 54f 55f
11:20 5ft 8s 6s 16 20 mph 1010.4mb 54f 56f
10:50 5ft 8s 6s 16 18 mph 1010.3mb 54f 55f
10:20 5ft 8s 6s 11 13 mph 1010.2mb 54f 54f
9:50 6ft 8s 6s 11 13 mph 1010mb 54f 54f
9:20 6ft 8s 6s 7 9 mph 1010mb 54f 54f
8:50 6ft 8s 6s 9
mph
1010mb 54f 54f
8:20 6ft 8s 7s 9
mph
1009.9mb 54f 54f
7:50 6.5ft 8s 7s 7 9 mph 1009.8mb 54f 54f
7:20 6.5ft 8s 7s 9 11 mph 1009.6mb 54f 54f
6:50 6ft 8s 7s 11 13 mph 1009.5mb 54f 55f
6:20 7ft 8s 7s 16 18 mph 1009.2mb 54f 54f
5:50 7ft 9s 7s 11 13 mph 1008.9mb 54f 54f
5:20 5ft 8s 7s 11 13 mph 1008.7mb 54f 55f
4:50 6ft 8s 7s 13 16 mph 1008.8mb 54f 55f
4:20 5ft 9s 7s 13
mph
1008.8mb 54f 56f
3:50 5ft 8s 7s 11 13 mph 1008.7mb 54f 56f
3:20 5ft 8s 7s 13 16 mph 1008.8mb 54f 56f
2:50 4.5ft 8s 7s 11 13 mph 1008.8mb 53f 56f
1:50 4.5ft 8s 7s 9
mph
1009.2mb 53f 55f
1:20 4.5ft 9s 8s 7 9 mph 1009.3mb 53f 56f
12:50 5ft 9s 8s 7 9 mph 1009.1mb 53f 55f
12:20 4.5ft 8s 7s 7
mph
1009.3mb 53f 55f
Fr 08/26 11:50 4.5ft 9s 7s 2 4 mph 1009.5mb 54f 55f
11:20 4ft 9s 7s 2 4 mph 1009.6mb 54f 55f
10:50 4ft 9s 7s 2
mph
1009.7mb 53f 55f
10:20 3.5ft 10s 7s 4 7 mph 1009.8mb 54f 56f
9:50 3.5ft 8s 7s 4 7 mph 1009.9mb 54f 56f
9:20 2.5ft 9s 6s 4 7 mph 1009.9mb 54f 55f
8:50 3ft 8s 6s 9
mph
1009.9mb 54f 55f
8:20 3.5ft 8s 6s 11
mph
1010mb 54f 56f
7:50 4.5ft 8s 6s 11
mph
1009.8mb 54f 57f
7:20 4ft 9s 7s 13 16 mph 1009.8mb 54f 57f
6:50 4ft 9s 6s 9
mph
1010.3mb 54f 56f
6:20 4.5ft 9s 7s 7 9 mph 1010.7mb 55f 57f
5:50 5ft 9s 7s 9
mph
1010.9mb 55f 57f
5:20 4.5ft 9s 7s 4
mph
1011.2mb 56f 58f
4:50 5ft 8s 7s 4 7 mph 1011.3mb 56f 59f
4:20 4.5ft 9s 7s 7 9 mph 1011.4mb 56f 59f
3:50 4.5ft 8s 7s 4 7 mph 1011.7mb 56f 58f
3:20 4.5ft 8s 7s 2 4 mph 1012mb 56f 59f
2:50 4.5ft 8s 7s 4 7 mph 1012.3mb 56f 59f
2:20 5ft 8s 7s 4
mph
1012.6mb 55f 60f
1:50 5ft 9s 8s 7 9 mph 1012.8mb 55f 59f
1:20 4.5ft 9s 7s 7 9 mph 1012.9mb 55f 60f
12:50 4.5ft 9s 7s 7
mph
1013mb 55f 59f
12:20 4ft 9s 7s 7
mph
1012.9mb 55f 58f
11:50 4ft 9s 7s 7
mph
1012.9mb 54f 58f
11:20 4.5ft 8s 7s 11 13 mph 1012.7mb 54f 58f
10:50 4.5ft 9s 7s 7 9 mph 1013mb 54f 58f
10:20 5ft 9s 7s 7 9 mph 1013.2mb 54f 57f
9:50 5ft 9s 7s 2
mph
1013.4mb 54f 57f
9:20 5ft 9s 7s 2 4 mph 1013.3mb 54f 57f
8:50 4.5ft 9s 7s 2 4 mph 1013.4mb 54f 57f
8:20 5.5ft 9s 7s 4 7 mph 1013.5mb 54f 56f
7:50 5ft 9s 7s 9 11 mph 1013.4mb 54f 57f
7:20 5ft 9s 7s 9 11 mph 1013.4mb 55f 56f
6:50 5ft 9s 7s 7 9 mph 1013.5mb 55f 55f
6:20 4.5ft 8s 7s 4 7 mph 1013.5mb 55f 55f
5:50 5ft 9s 7s 7 9 mph 1013.4mb 55f 58f
5:20 4.5ft 9s 7s 2
mph
1013.5mb 56f 58f
4:50 4.5ft 9s 7s  -  2 mph 1013.6mb 55f 57f
4:20 4.5ft 9s 7s  -  2 mph 1013.7mb 55f 55f
3:50 4ft 8s 7s 2 4 mph 1013.7mb 55f 55f
3:20 4ft 10s 8s 2 4 mph 1013.9mb 56f 56f
2:50 4.5ft 9s 8s 2 4 mph 1014.1mb 55f 56f
2:20 4.5ft 10s 8s 2 4 mph 1014.2mb 56f 56f
1:50 5ft 10s 8s 4
mph
1014.4mb 57f 56f
1:20 5ft 9s 8s 4
mph
1014.6mb 56f 56f
12:50 4.5ft 9s 8s 4
mph
1014.7mb 57f 57f
12:20 5ft 10s 8s 4 7 mph 1014.6mb 57f 57f
Do 08/25 11:50 4.5ft 9s 8s 4 7 mph 1014.6mb 57f 57f
11:20 5ft 9s 8s 7
mph
1014.8mb 57f 58f
10:50 5ft 9s 8s 4
mph
1014.9mb 57f 58f
10:20 6ft 9s 8s 4 7 mph 1015mb 57f 57f
9:50 5ft 9s 8s 7
mph
1015mb 56f 57f
9:20 4.5ft 9s 7s 4 7 mph 1015.3mb 57f 57f
8:50 4.5ft 9s 7s 7 9 mph 1015.2mb 57f 58f
8:20 5ft 9s 7s 11 13 mph 1015mb 57f 59f
7:50 4.5ft 8s 7s 9 11 mph 1015.1mb 58f 59f
7:20 4.5ft 9s 7s 7 9 mph 1015.1mb 58f 61f
6:50 4.5ft 9s 7s 7 9 mph 1015.3mb 58f 61f
6:20 4.5ft 9s 7s 4 7 mph 1015.7mb 58f 61f
5:50 4.5ft 9s 7s 7
mph
1015.9mb 58f 61f
5:20 4.5ft 9s 7s 7
mph
1016.2mb 57f 61f
4:50 4.5ft 9s 7s 7 9 mph 1016.4mb 57f 61f
4:20 4.5ft 9s 7s 4 7 mph 1016.6mb 57f 63f
3:50 4.5ft 8s 7s 7 9 mph 1016.8mb 57f 64f
3:20 4.5ft 8s 7s 7 9 mph 1017mb 56f 65f
2:50 4.5ft 8s 7s 7 9 mph 1017.4mb 56f 65f
2:20 4.5ft 10s 8s 9 11 mph 1017.7mb 56f 64f
1:50 4ft 9s 8s 9
mph
1018.1mb 55f 62f
1:20 4ft 10s 8s 9 11 mph 1018.3mb 55f 62f
12:50 4.5ft 9s 7s 7 9 mph 1018.8mb 55f 60f
12:20 3.5ft 10s 7s 7 9 mph 1019.1mb 55f 61f
11:50 4.5ft 10s 7s 9 11 mph 1019.2mb 55f 60f
11:20 4ft 10s 7s 11
mph
1019.3mb 55f 60f
10:50 3.5ft 9s 7s 9 11 mph 1019.7mb 55f 58f
10:20 3.5ft 10s 7s 11
mph
1019.8mb 55f 58f
9:50 4ft 7s 7s 11
mph
1019.9mb 55f 58f
9:20 4ft 9s 7s 9 11 mph 1020mb 55f 57f
8:50 4ft 9s 7s 11 13 mph 1020.1mb 55f 58f
8:20 4ft 10s 7s 9 11 mph 1020mb 55f 57f
7:50 4ft 9s 7s 9 11 mph 1019.9mb 55f 57f
7:20 4ft 9s 6s 9
mph
1019.9mb 55f 57f
6:50 4ft 9s 7s 9
mph
1020mb 55f 57f
6:20 4ft 10s 7s 11 13 mph 1019.8mb 54f 59f
5:50 3.5ft 10s 6s 7
mph
1019.9mb 54f 58f
5:20 3.5ft 10s 7s 7 11 mph 1019.9mb 55f 58f
4:50 3ft 10s 6s 9 11 mph 1019.9mb 54f 59f
4:20 3.5ft 10s 7s 9 11 mph 1019.9mb 54f 58f
3:50 3ft 11s 7s 7
mph
1019.9mb 54f 60f
3:20 3ft 10s 7s 4 7 mph 1020mb 54f 60f
2:50 3ft 7s 7s 4 9 mph 1020mb 54f 57f
2:20 3ft 11s 7s 7 9 mph 1020.1mb 54f 57f
1:50 3.5ft 11s 7s 9 13 mph 1020.1mb 55f 59f
1:20 3ft 11s 7s 7 13 mph 1020.1mb 55f 61f
12:50 3ft 11s 7s 9
mph
1020.1mb 55f 61f
12:20 3.5ft 7s 7s 4 7 mph 1020.3mb 56f 57f
Mi 08/24 11:50 3.5ft 7s 7s 2
mph
1020.4mb 56f 57f
11:20 3.5ft 8s 7s 2 4 mph 1020.4mb 56f 58f
10:50 3.5ft 7s 7s 4
mph
1020.5mb 56f 58f
10:20 3.5ft 7s 7s 4
mph
1020.7mb 56f 57f
9:50 3.5ft 8s 7s 2 4 mph 1020.6mb 56f 57f
9:20 3.5ft 8s 7s 4 7 mph 1020.7mb 56f 57f
8:20 3.5ft 7s 6s 4
mph
1020.6mb 55f 57f
7:50 2.5ft 7s 6s 4 7 mph 1020.7mb 55f 60f
7:20 2.5ft 7s 6s 7
mph
1020.8mb 56f 60f
6:50 2.5ft 6s 6s 4 7 mph 1021mb 56f 61f
6:20 2.5ft 6s 5s 7 9 mph 1021.2mb 56f 60f
5:50 3ft 6s 5s 9
mph
1021.4mb 56f 60f
5:20 3ft 6s 5s 7
mph
1021.6mb 56f 59f
4:50 3.5ft 7s 6s 7 9 mph 1021.7mb 56f 59f
4:20 3.5ft 7s 6s 7
mph
1022mb 56f 61f
3:50 3.5ft 7s 6s  -  2 mph 1022.1mb 56f 61f
3:20 3.5ft 7s 6s 2 4 mph 1022.3mb 55f 60f
2:50 3ft 7s 6s 7 9 mph 1022.4mb 55f 60f
2:20 3.5ft 7s 6s 9
mph
1022.7mb 54f 59f
1:50 3.5ft 7s 6s 9
mph
1023mb 54f 59f
1:20 3ft 7s 7s 11
mph
1023.2mb 53f 58f
12:50 3ft 7s 6s 9 11 mph 1023.5mb 53f 57f
12:20 3ft 7s 6s 9 11 mph 1023.6mb 53f 56f
11:50 3ft 7s 6s 11 13 mph 1023.8mb 53f 56f
11:20 3.5ft 7s 6s 11 13 mph 1024mb 53f 56f
10:50 3.5ft 8s 7s 9 11 mph 1024.1mb 53f 56f
10:20 3ft 7s 6s 9 11 mph 1024.1mb 53f 56f
9:50 3ft 7s  -  11 13 mph 1024mb 53f 55f
9:20 3ft 7s 6s 13
mph
1023.7mb 53f 55f
8:50 3.5ft 7s 6s 11 13 mph 1023.8mb 53f 55f
8:20 3.5ft 7s 6s 13 16 mph 1023.8mb 53f 55f
7:50 3.5ft 7s 6s 11 13 mph 1023.6mb 53f 55f
7:20 3.5ft 7s 6s 11 13 mph 1023.4mb 53f 55f